Flag Weather past 2 weeks in Angels Camp, California, U.S.A.

Now
48 °F

Fog.


Feels Like: 48 °F
Forecast: 39 / 55 °F
Wind: No wind

Location: Modesto City-County-Sham Field

Current Time: Nov 28, 2014 at 9:19:15 PM

Latest Report: Nov 28, 2014 at 8:53 PM


Visibility: 3 mi

Pressure: 29.87 "Hg

Humidity: 86%

Dew point: 44 °F

Location of Angels CampLocation

Historic Weather in Angels Camp — Graph

°F

Angels Camp temperature yesterday

Maximum temperature yesterday: 69 °F (at 2:53 PM)
Minimum temperature yesterday: 42 °F (at 6:58 AM)
Average temperature yesterday: 52 °F

Past Weeks' High & Low Weather Summary

 TemperatureHumidityPressure
High69 °F (Nov 27, 2:53 PM)100% (Nov 20, 8:53 PM)30.50 "Hg (Nov 20, 8:53 PM)
Low1 °F (Nov 21, 7:53 AM)34% (Nov 19, 1:53 PM)29.85 "Hg (Nov 28, 7:53 PM)
Average53 °F79%30.17 "Hg
* Reported Nov 13 7:53 PM — Nov 28 7:53 PM, Angels Camp, Weather by CustomWeather, © 2014

Note: Actual official high and low records may vary slightly from our data, if they occured in-between our weather recording intervals... More about our weather records

Advertising

Angels Camp weather history for previous 24 hours

 ConditionsComfort  
Time TempWeatherWind HumidityBarometerVisibility
7:53 PM
Nov 28
50 °FClear.No wind83%29.85 "Hg4 mi
6:53 PM53 °FClear.No wind77%29.86 "Hg4 mi
5:53 PM58 °FClear.5 mph65%29.87 "Hg5 mi
4:53 PM59 °FClear.7 mph64%29.87 "Hg4 mi
3:53 PM64 °FSunny.6 mph54%29.88 "Hg4 mi
2:53 PM63 °FSunny.5 mph56%29.90 "Hg4 mi
1:53 PM64 °FSunny.3 mph54%29.91 "Hg4 mi
12:53 PM63 °FSunny.5 mph56%29.94 "Hg3 mi
11:53 AM61 °FSunny.3 mph62%29.98 "Hg3 mi
10:53 AM57 °FSunny.5 mph72%30.01 "Hg3 mi
9:53 AM52 °FSunny.No wind80%30.03 "Hg3 mi
8:53 AM46 °FFog.No wind93%30.04 "Hg2 mi
7:56 AM40 °FFog.No wind93%30.01 "Hg1 mi
7:02 AM38 °FFog.No wind97%30.00 "Hg0 mi
6:53 AM37 °FFog.No wind96%30.00 "Hg1 mi
5:53 AM41 °FFog.No wind93%30.00 "Hg2 mi
4:53 AM40 °FFog.6 mph93%30.00 "Hg1 mi
3:53 AM41 °FFog.5 mph93%30.01 "Hg1 mi
2:53 AM41 °FFog.5 mph96%30.03 "Hg1 mi
1:53 AM44 °FFog.5 mph93%30.05 "Hg2 mi
1:01 AM44 °FFog.6 mph89%30.05 "Hg2 mi
12:53 AM44 °FFog.5 mph89%30.05 "Hg2 mi
11:53 PM
Nov 27
43 °FFog.5 mph93%30.06 "Hg1 mi
11:02 PM44 °FFog.5 mph93%30.07 "Hg1 mi
10:53 PM46 °FFog.3 mph89%30.07 "Hg2 mi
9:53 PM46 °FFog.No wind93%30.07 "Hg2 mi
Weather by CustomWeather, © 2014

See weather overviewHow to use our weather pages